Zurück zum Katalog

STARLINK-38037

AktivKommunikationSSO
NORAD 69750·PAYLOAD·🇺🇸 United States

Gestartet Jul 2, 2026 von Vandenberg Space Force Base

Loading…

Nächste Überflüge (nächste 24 Stunden)

TLE

AktuellSource: CelesTrak SupGP

Epoche: Sep 15, 2026, 04:11 UTC

1 69750C 26150M   26258.17479167 -.00054063  00000+0 -16781-2 0  2588
2 69750  97.2852  97.1080 0001845  90.8375 326.4075 15.33468727    11

Verfolge STARLINK-38037 in Echtzeit mit AllMySat

Download on the App Store